• In Deutschland
  • Länderverzeichnis
  • Für 7 Tage
  • Wassertemperatur
  • Satellitenkarten
  • Wetterkarte
  • Widgets
  • user-avatar
    Anmelden

    Stündliche Wetter Akhaltsikhe

    Heute, 14 August, Dienstag

    Zeit Temperatur Niederschläge Wind Luftdruck Luftfeuchtigkeit
    00:00 +13°C° 0 mm 1 m/S 649 mmHg 96%
    01:00 +13°C° 0 mm 1 m/S 649 mmHg 95%
    02:00 +13°C° 0 mm 1 m/S 649 mmHg 94%
    03:00 +13°C° 0 mm 1 m/S 649 mmHg 93%
    04:00 +13°C° 0 mm 1 m/S 649 mmHg 92%
    05:00 +13°C° 0 mm 1 m/S 649 mmHg 91%
    06:00 +13°C° 0 mm 1 m/S 649 mmHg 90%
    07:00 +16°C° 0 mm 2 m/S 650 mmHg 80%
    08:00 +18°C° 0 mm 2 m/S 650 mmHg 71%
    09:00 +20°C° 0 mm 2 m/S 651 mmHg 60%
    10:00 +23°C° 0 mm 2 m/S 651 mmHg 57%
    11:00 +24°C° 0 mm 2 m/S 651 mmHg 53%
    12:00 +25°C° 0 mm 3 m/S 651 mmHg 50%
    13:00 +25°C° 0,1 mm 3 m/S 651 mmHg 51%
    14:00 +25°C° 0,1 mm 3 m/S 651 mmHg 51%
    15:00 +23°C° 0 mm 4 m/S 651 mmHg 55%
    16:00 +22°C° 0,1 mm 3 m/S 651 mmHg 60%
    17:00 +21°C° 0,1 mm 3 m/S 651 mmHg 64%
    18:00 +20°C° 0,1 mm 2 m/S 651 mmHg 69%
    19:00 +18°C° 0 mm 2 m/S 651 mmHg 76%
    20:00 +16°C° 0 mm 1 m/S 650 mmHg 84%
    21:00 +15°C° 0 mm 1 m/S 650 mmHg 91%
    22:00 +14°C° 0 mm 1 m/S 650 mmHg 90%
    23:00 +14°C° 0 mm 1 m/S 650 mmHg 90%

    Morgen, 15 August, Mittwoch

    Zeit Temperatur Niederschläge Wind Luftdruck Luftfeuchtigkeit
    00:00 +13°C° 0 mm 2 m/S 650 mmHg 89%
    01:00 +13°C° 0 mm 2 m/S 650 mmHg 88%
    02:00 +13°C° 0 mm 2 m/S 649 mmHg 87%
    03:00 +13°C° 0 mm 2 m/S 649 mmHg 86%
    04:00 +13°C° 0 mm 2 m/S 649 mmHg 85%
    05:00 +13°C° 0 mm 2 m/S 649 mmHg 84%
    06:00 +13°C° 0 mm 2 m/S 650 mmHg 84%
    07:00 +16°C° 0 mm 2 m/S 650 mmHg 75%
    08:00 +18°C° 0 mm 2 m/S 651 mmHg 67%
    09:00 +21°C° 0 mm 2 m/S 651 mmHg 59%
    10:00 +23°C° 0 mm 2 m/S 652 mmHg 55%
    11:00 +24°C° 0 mm 3 m/S 652 mmHg 52%
    12:00 +26°C° 0 mm 3 m/S 652 mmHg 48%
    13:00 +26°C° 0,3 mm 3 m/S 652 mmHg 48%
    14:00 +26°C° 0,3 mm 3 m/S 652 mmHg 48%
    15:00 +27°C° 0,3 mm 2 m/S 651 mmHg 48%
    16:00 +26°C° 0,3 mm 2 m/S 651 mmHg 53%
    17:00 +24°C° 0,3 mm 2 m/S 651 mmHg 58%
    18:00 +23°C° 0,3 mm 2 m/S 651 mmHg 63%
    19:00 +20°C° 0,1 mm 2 m/S 650 mmHg 69%
    20:00 +18°C° 0,1 mm 2 m/S 650 mmHg 75%
    21:00 +16°C° 0,1 mm 2 m/S 650 mmHg 81%
    22:00 +16°C° 0 mm 2 m/S 650 mmHg 81%
    23:00 +16°C° 0 mm 2 m/S 650 mmHg 81%

    übermorgen, 16 August, Donnerstag

    Zeit Temperatur Niederschläge Wind Luftdruck Luftfeuchtigkeit
    00:00 +15°C° 0 mm 2 m/S 650 mmHg 81%
    01:00 +15°C° 0 mm 2 m/S 650 mmHg 80%
    02:00 +15°C° 0 mm 2 m/S 650 mmHg 79%
    03:00 +15°C° 0 mm 2 m/S 650 mmHg 78%
    04:00 +15°C° 0 mm 2 m/S 649 mmHg 78%
    05:00 +15°C° 0 mm 2 m/S 649 mmHg 77%
    06:00 +15°C° 0 mm 2 m/S 649 mmHg 76%
    07:00 +18°C° 0 mm 2 m/S 650 mmHg 68%
    08:00 +20°C° 0 mm 2 m/S 651 mmHg 60%
    09:00 +24°C° 0 mm 2 m/S 651 mmHg 52%
    10:00 +26°C° 0 mm 2 m/S 651 mmHg 48%
    11:00 +28°C° 0 mm 2 m/S 652 mmHg 44%
    12:00 +29°C° 0 mm 2 m/S 652 mmHg 39%
    13:00 +29°C° 0 mm 2 m/S 652 mmHg 39%
    14:00 +30°C° 0 mm 2 m/S 651 mmHg 39%
    15:00 +30°C° 0 mm 2 m/S 651 mmHg 39%
    16:00 +28°C° 0 mm 2 m/S 651 mmHg 46%
    17:00 +27°C° 0 mm 2 m/S 650 mmHg 53%
    18:00 +26°C° 0 mm 2 m/S 650 mmHg 60%
    19:00 +23°C° 0,1 mm 2 m/S 650 mmHg 68%
    20:00 +20°C° 0,1 mm 2 m/S 650 mmHg 76%
    21:00 +19°C° 0,1 mm 1 m/S 650 mmHg 83%
    22:00 +19°C° 0 mm 1 m/S 650 mmHg 83%
    23:00 +18°C° 0 mm 1 m/S 650 mmHg 83%

    17 August, Freitag

    Zeit Temperatur Niederschläge Wind Luftdruck Luftfeuchtigkeit
    00:00 +18°C° 0 mm 1 m/S 649 mmHg 83%
    01:00 +18°C° 0 mm 1 m/S 649 mmHg 82%
    02:00 +16°C° 0 mm 1 m/S 649 mmHg 81%
    03:00 +16°C° 0 mm 1 m/S 649 mmHg 81%
    04:00 +16°C° 0 mm 1 m/S 649 mmHg 80%
    05:00 +16°C° 0 mm 1 m/S 649 mmHg 79%
    06:00 +16°C° 0 mm 1 m/S 649 mmHg 78%
    07:00 +20°C° 0 mm 1 m/S 650 mmHg 68%
    08:00 +23°C° 0 mm 1 m/S 650 mmHg 59%
    09:00 +26°C° 0 mm 1 m/S 651 mmHg 50%
    10:00 +28°C° 0 mm 1 m/S 651 mmHg 46%
    11:00 +29°C° 0 mm 1 m/S 651 mmHg 43%
    12:00 +30°C° 0 mm 1 m/S 651 mmHg 39%
    13:00 +30°C° 0,1 mm 2 m/S 651 mmHg 41%
    14:00 +30°C° 0,1 mm 2 m/S 650 mmHg 43%
    15:00 +30°C° 0,1 mm 3 m/S 650 mmHg 45%
    16:00 +28°C° 0,2 mm 3 m/S 650 mmHg 53%
    17:00 +26°C° 0,2 mm 3 m/S 649 mmHg 61%
    18:00 +25°C° 0,2 mm 2 m/S 649 mmHg 69%
    19:00 +23°C° 0,2 mm 2 m/S 649 mmHg 77%
    20:00 +21°C° 0,2 mm 1 m/S 649 mmHg 85%
    21:00 +19°C° 0,2 mm 1 m/S 649 mmHg 94%
    22:00 +18°C° 0,1 mm 1 m/S 649 mmHg 94%
    23:00 +18°C° 0,1 mm 1 m/S 649 mmHg 95%

    18 August, Samstag

    Zeit Temperatur Niederschläge Wind Luftdruck Luftfeuchtigkeit
    00:00 +18°C° 0,1 mm 1 m/S 649 mmHg 95%
    01:00 +18°C° 0 mm 1 m/S 648 mmHg 95%
    02:00 +16°C° 0 mm 1 m/S 648 mmHg 95%
    03:00 +16°C° 0 mm 1 m/S 648 mmHg 96%
    04:00 +16°C° 0 mm 1 m/S 648 mmHg 95%
    05:00 +16°C° 0 mm 1 m/S 648 mmHg 95%
    06:00 +16°C° 0 mm 1 m/S 648 mmHg 95%
    07:00 +19°C° 0,1 mm 1 m/S 649 mmHg 87%
    08:00 +21°C° 0,1 mm 1 m/S 649 mmHg 79%
    09:00 +22°C° 0,1 mm 1 m/S 649 mmHg 71%
    10:00 +24°C° 0,3 mm 2 m/S 649 mmHg 66%
    11:00 +25°C° 0,3 mm 2 m/S 649 mmHg 61%
    12:00 +26°C° 0,3 mm 3 m/S 649 mmHg 56%
    13:00 +26°C° 0,5 mm 3 m/S 649 mmHg 57%
    14:00 +25°C° 0,5 mm 3 m/S 649 mmHg 58%
    15:00 +25°C° 0,5 mm 3 m/S 649 mmHg 58%
    16:00 +24°C° 0,1 mm 3 m/S 649 mmHg 64%
    17:00 +22°C° 0,1 mm 3 m/S 648 mmHg 70%
    18:00 +21°C° 0,1 mm 2 m/S 648 mmHg 76%
    19:00 +19°C° 0,1 mm 2 m/S 648 mmHg 83%
    20:00 +19°C° 0,1 mm 1 m/S 648 mmHg 90%
    21:00 +16°C° 0,1 mm 1 m/S 648 mmHg 97%
    22:00 +16°C° 0 mm 1 m/S 648 mmHg 97%
    23:00 +15°C° 0 mm 1 m/S 648 mmHg 96%

    19 August, Sonntag

    Zeit Temperatur Niederschläge Wind Luftdruck Luftfeuchtigkeit
    00:00 +15°C° 0 mm 1 m/S 648 mmHg 95%
    01:00 +15°C° 0 mm 1 m/S 648 mmHg 94%
    02:00 +14°C° 0 mm 1 m/S 648 mmHg 94%
    03:00 +14°C° 0 mm 1 m/S 647 mmHg 93%
    04:00 +14°C° 0 mm 1 m/S 648 mmHg 91%
    05:00 +14°C° 0 mm 1 m/S 648 mmHg 89%
    06:00 +14°C° 0 mm 1 m/S 648 mmHg 87%
    07:00 +18°C° 0 mm 1 m/S 648 mmHg 76%
    08:00 +21°C° 0 mm 1 m/S 649 mmHg 66%
    09:00 +23°C° 0 mm 1 m/S 649 mmHg 56%
    10:00 +25°C° 0 mm 2 m/S 649 mmHg 52%
    11:00 +26°C° 0 mm 2 m/S 649 mmHg 48%
    12:00 +27°C° 0 mm 2 m/S 649 mmHg 44%
    13:00 +27°C° 0,2 mm 2 m/S 649 mmHg 47%
    14:00 +27°C° 0,2 mm 3 m/S 649 mmHg 49%
    15:00 +27°C° 0,2 mm 3 m/S 649 mmHg 51%
    16:00 +25°C° 0,7 mm 3 m/S 648 mmHg 58%
    17:00 +24°C° 0,7 mm 2 m/S 648 mmHg 65%
    18:00 +23°C° 0,7 mm 2 m/S 648 mmHg 72%
    19:00 +20°C° 0,2 mm 2 m/S 648 mmHg 78%
    20:00 +20°C° 0,2 mm 1 m/S 648 mmHg 83%
    21:00 +18°C° 0,2 mm 1 m/S 648 mmHg 89%
    22:00 +18°C° 0,5 mm 1 m/S 648 mmHg 90%
    23:00 +18°C° 0,5 mm 1 m/S 648 mmHg 90%
    Mehr zeigen